Cook, MN

1:56 AM CDT on June 29, 2017 (GMT -0500)
Cook Municipal

Weather History for KCQM - May, 2013

Change the Weather History Date:

Friday, May 31, 2013

  Actual Average Record
Temperature  
Mean Temperature 68 °F -  
Max Temperature 75 °F 65 °F 80 °F (1997)
Min Temperature 60 °F 41 °F 30 °F (2003)
Cooling Degree Days 2    
Growing Degree Days 18 (Base 50)    
Moisture  
Dew Point 56 °F    
Average Humidity 73    
Maximum Humidity 100    
Minimum Humidity 36    
Precipitation  
Precipitation 0.03 in - - ()
Sea Level Pressure  
Sea Level Pressure 29.54 in    
Wind  
Wind Speed 6 mph (SSE)    
Max Wind Speed 20 mph    
Max Gust Speed 26 mph    
Visibility 10 miles    
Events Rain , Thunderstorm    
Averages and records for this station are not official NWS values.
T = Trace of Precipitation, MM = Missing Value Source: NWS Daily Summary

Daily Weather History Graph

Daily Weather History Graph

Search for Another Location

Airport or City:

Trip Planner

Search our weather history database for the weather conditions in past years. The results will help you decide how hot, cold, wet, or windy it might be!

Date:

Astronomy

May. 31, 2013 Rise Set
Actual Time 5:16 AM CDT 9:00 PM CDT
Civil Twilight 4:37 AM CDT 9:40 PM CDT
Nautical Twilight 3:43 AM CDT 10:34 PM CDT
Astronomical Twilight 2:27 AM CDT 11:51 PM CDT
Moon 1:14 AM CDT (5/31) 12:56 PM CDT (5/31)
Length of Visible Light 17h 03m
Length of Day
15h 44m
Waning Gibbous, 51% of the Moon is Illuminated
May 31
Waning Gibbous
May 31
Last Quarter
Jun 8
New
Jun 16
First Quarter
Jun 23
Full

Hourly Weather History & Observations

Time (CDT) Temp. Dew Point Humidity Pressure Visibility Wind Dir Wind Speed Gust Speed Precip Events Conditions
12:17 AM 64.4 °F 60.8 °F 88% 29.55 in 10.0 mi East 3.5 mph - N/A   Mostly Cloudy
12:36 AM 62.6 °F 60.8 °F 94% 29.55 in 10.0 mi East 3.5 mph - N/A   Mostly Cloudy
12:57 AM 62.6 °F 60.8 °F 94% 29.55 in 10.0 mi East 3.5 mph - N/A   Overcast
1:16 AM 62.6 °F 60.8 °F 94% 29.55 in 10.0 mi East 3.5 mph - N/A   Overcast
1:37 AM 62.6 °F 60.8 °F 94% 29.53 in 10.0 mi East 4.6 mph - N/A Rain Light Rain
1:57 AM 62.6 °F 60.8 °F 94% 29.53 in 7.0 mi East 5.8 mph - N/A Rain Light Rain
2:16 AM 62.6 °F 60.8 °F 94% 29.53 in 10.0 mi South 4.6 mph - 0.01 in   Drizzle
2:37 AM 62.6 °F 60.8 °F 94% 29.53 in 7.0 mi Calm Calm - 0.01 in   Drizzle
2:57 AM 62.6 °F 60.8 °F 94% 29.53 in 10.0 mi SSE 3.5 mph - N/A   Overcast
3:16 AM 62.6 °F 60.8 °F 94% 29.53 in 7.0 mi SSE 6.9 mph - N/A Rain Rain
3:37 AM 62.6 °F 60.8 °F 94% 29.52 in 7.0 mi SE 6.9 mph - N/A Rain Rain
3:57 AM 62.6 °F 60.8 °F 94% 29.52 in 10.0 mi SE 5.8 mph - N/A   Overcast
4:16 AM 60.8 °F 60.8 °F 100% 29.53 in 10.0 mi SSE 4.6 mph - N/A   Overcast
4:37 AM 60.8 °F 60.8 °F 100% 29.53 in 10.0 mi SSE 8.1 mph - N/A   Overcast
4:57 AM 60.8 °F 59.0 °F 94% 29.53 in 10.0 mi SSE 5.8 mph - N/A   Overcast
5:16 AM 60.8 °F 59.0 °F 94% 29.53 in 10.0 mi SSE 5.8 mph - N/A   Overcast
5:37 AM 60.8 °F 59.0 °F 94% 29.52 in 10.0 mi Calm Calm - N/A   Overcast
5:56 AM 60.8 °F 59.0 °F 94% 29.53 in 10.0 mi SE 4.6 mph - N/A   Overcast
6:17 AM 60.8 °F 59.0 °F 94% 29.53 in 10.0 mi SE 3.5 mph - N/A   Overcast
6:37 AM 60.8 °F 59.0 °F 94% 29.53 in 10.0 mi SSE 5.8 mph - N/A   Overcast
6:56 AM 60.8 °F 59.0 °F 94% 29.53 in 7.0 mi Calm Calm - N/A   Overcast
7:17 AM 60.8 °F 59.0 °F 94% 29.53 in 7.0 mi SSE 5.8 mph - N/A   Overcast
7:37 AM 60.8 °F 59.0 °F 94% 29.53 in 7.0 mi SSE 5.8 mph - N/A   Overcast
7:56 AM 62.6 °F 60.8 °F 94% 29.53 in 10.0 mi SE 5.8 mph - N/A   Overcast
8:17 AM 62.6 °F 59.0 °F 88% 29.53 in 10.0 mi SE 6.9 mph - N/A   Overcast
8:37 AM 62.6 °F 59.0 °F 88% 29.53 in 10.0 mi SE 9.2 mph - N/A   Overcast
8:57 AM 62.6 °F 59.0 °F 88% 29.53 in 10.0 mi SE 9.2 mph - N/A   Overcast
9:16 AM 62.6 °F 59.0 °F 88% 29.54 in 10.0 mi SE 6.9 mph - N/A   Overcast
9:37 AM 62.6 °F 59.0 °F 88% 29.53 in 10.0 mi SE 4.6 mph - N/A   Overcast
9:57 AM 64.4 °F 57.2 °F 77% 29.53 in 10.0 mi SE 8.1 mph - N/A   Mostly Cloudy
10:16 AM 64.4 °F 57.2 °F 77% 29.52 in 10.0 mi SSE 11.5 mph 17.3 mph N/A   Scattered Clouds
10:37 AM 68.0 °F 57.2 °F 68% 29.51 in 10.0 mi SSE 8.1 mph - N/A   Scattered Clouds
10:57 AM 68.0 °F 57.2 °F 68% 29.51 in 10.0 mi SSE 15.0 mph - N/A   Clear
11:16 AM 69.8 °F 57.2 °F 64% 29.52 in 10.0 mi SSE 12.7 mph 18.4 mph N/A   Scattered Clouds
11:37 AM 69.8 °F 55.4 °F 60% 29.51 in 10.0 mi SE 13.8 mph 20.7 mph N/A   Scattered Clouds
11:56 AM 69.8 °F 55.4 °F 60% 29.51 in 10.0 mi SSE 13.8 mph 19.6 mph N/A   Clear
12:17 PM 71.6 °F 55.4 °F 57% 29.51 in 10.0 mi SSE 16.1 mph 21.9 mph N/A   Scattered Clouds
12:36 PM 71.6 °F 55.4 °F 57% 29.52 in 10.0 mi South 12.7 mph 19.6 mph N/A   Scattered Clouds
12:57 PM 71.6 °F 55.4 °F 57% 29.52 in 10.0 mi SSE 16.1 mph 26.5 mph N/A   Scattered Clouds
1:16 PM 71.6 °F 53.6 °F 53% 29.52 in 10.0 mi South 17.3 mph 26.5 mph N/A   Scattered Clouds
1:36 PM 73.4 °F 53.6 °F 50% 29.51 in 10.0 mi South 10.4 mph 23.0 mph N/A   Scattered Clouds
1:56 PM 73.4 °F 53.6 °F 50% 29.51 in 10.0 mi SSE 12.7 mph 21.9 mph N/A   Scattered Clouds
2:17 PM 71.6 °F 55.4 °F 57% 29.52 in 10.0 mi SSE 15.0 mph - 0.01 in Rain Light Rain
2:36 PM 75.2 °F 53.6 °F 47% 29.52 in 10.0 mi South 16.1 mph 25.3 mph 0.01 in   Scattered Clouds
2:57 PM 75.2 °F 51.8 °F 44% 29.52 in 10.0 mi SSW 19.6 mph 25.3 mph N/A   Scattered Clouds
3:16 PM 75.2 °F 50.0 °F 41% 29.52 in 10.0 mi SSW 16.1 mph 26.5 mph N/A   Scattered Clouds
3:36 PM 75.2 °F 46.4 °F 36% 29.52 in 10.0 mi SSW 17.3 mph 26.5 mph N/A Thunderstorm Scattered Clouds
3:57 PM 75.2 °F 48.2 °F 38% 29.51 in 10.0 mi SSW 11.5 mph 20.7 mph N/A   Scattered Clouds
4:16 PM 75.2 °F 48.2 °F 38% 29.50 in 10.0 mi South 13.8 mph 26.5 mph N/A   Scattered Clouds
4:36 PM 75.2 °F 46.4 °F 36% 29.50 in 10.0 mi South 13.8 mph 19.6 mph N/A   Clear
4:57 PM 75.2 °F 48.2 °F 38% 29.50 in 10.0 mi South 13.8 mph 18.4 mph N/A   Scattered Clouds
5:17 PM 75.2 °F 46.4 °F 36% 29.52 in 10.0 mi SSW 11.5 mph 23.0 mph N/A   Scattered Clouds
5:36 PM 73.4 °F 48.2 °F 41% 29.52 in 10.0 mi SSW 10.4 mph - N/A   Clear
5:57 PM 71.6 °F 51.8 °F 50% 29.54 in 10.0 mi SSE 12.7 mph 23.0 mph N/A   Mostly Cloudy
6:16 PM 69.8 °F 51.8 °F 53% 29.54 in 10.0 mi SSE 10.4 mph 20.7 mph N/A   Overcast
6:36 PM 68.0 °F 51.8 °F 56% 29.55 in 10.0 mi SSE 12.7 mph 19.6 mph N/A   Scattered Clouds
6:57 PM 66.2 °F 51.8 °F 60% 29.55 in 10.0 mi South 9.2 mph - N/A   Mostly Cloudy
7:16 PM 64.4 °F 55.4 °F 73% 29.56 in 10.0 mi SSE 3.5 mph - 0.01 in Rain Light Rain
7:36 PM 66.2 °F 55.4 °F 68% 29.56 in 10.0 mi South 3.5 mph - 0.01 in   Mostly Cloudy
7:57 PM 66.2 °F 55.4 °F 68% 29.57 in 10.0 mi Calm Calm - N/A   Mostly Cloudy
8:16 PM 66.2 °F 55.4 °F 68% 29.57 in 10.0 mi Calm Calm - N/A   Mostly Cloudy
8:36 PM 64.4 °F 55.4 °F 73% 29.58 in 10.0 mi Calm Calm - N/A   Overcast
8:57 PM 64.4 °F 55.4 °F 73% 29.58 in 10.0 mi Calm Calm - N/A   Overcast
9:16 PM 62.6 °F 55.4 °F 77% 29.58 in 10.0 mi Calm Calm - N/A   Overcast
9:36 PM 62.6 °F 55.4 °F 77% 29.58 in 10.0 mi Calm Calm - N/A   Overcast
9:57 PM 62.6 °F 55.4 °F 77% 29.58 in 10.0 mi Calm Calm - N/A   Overcast
10:16 PM 62.6 °F 53.6 °F 72% 29.58 in 10.0 mi Calm Calm - N/A   Overcast
10:36 PM 62.6 °F 55.4 °F 77% 29.58 in 10.0 mi Calm Calm - N/A   Overcast
10:57 PM 60.8 °F 53.6 °F 77% 29.58 in 10.0 mi SSW 3.5 mph - N/A   Overcast
11:16 PM 60.8 °F 55.4 °F 82% 29.58 in 10.0 mi Calm Calm - N/A   Overcast
11:36 PM 60.8 °F 53.6 °F 77% 29.57 in 10.0 mi Calm Calm - N/A   Overcast
11:57 PM 60.8 °F 53.6 °F 77% 29.57 in 10.0 mi Calm Calm - N/A   Overcast